This is the latest recevied weather packets stored in our database for station/object KB2SKP. If no packets are shown the sender has not sent any weather packets the latest 10 day(s).
| Time | Temp. | Humidity | Pressure | Rain* | Wind** | Luminosity | Snow |
|---|---|---|---|---|---|---|---|
| 1778031237 | 22.78° C | 49% | 1008.5 hPa | 0 mm | - | 0 W/m² | - |
| 1778030932 | 22.78° C | 49% | 1008.5 hPa | 0 mm | - | 0 W/m² | - |
| 1778030629 | 23.33° C | 48% | 1008.5 hPa | 0 mm | - | 0 W/m² | - |
| 1778030326 | 23.33° C | 49% | 1008.2 hPa | 0 mm | - | 0 W/m² | - |
| 1778030023 | 23.33° C | 48% | 1008.5 hPa | 0 mm | - | 0 W/m² | - |
| 1778029721 | 23.33° C | 48% | 1008.1 hPa | 0 mm | - | 0 W/m² | - |
| 1778029419 | 23.33° C | 48% | 1008.1 hPa | 0 mm | - | 0 W/m² | - |
| 1778029115 | 23.89° C | 47% | 1008 hPa | 0 mm | - | 0 W/m² | - |
| 1778028812 | 23.33° C | 47% | 1008.1 hPa | 0 mm | - | 0 W/m² | - |
| 1778028508 | 23.89° C | 47% | 1007.9 hPa | 0 mm | - | 0 W/m² | - |
| 1778028206 | 23.89° C | 46% | 1008 hPa | 0 mm | - | 0 W/m² | - |
| 1778027902 | 23.89° C | 45% | 1008 hPa | 0 mm | - | 0 W/m² | - |
| 1778027598 | 23.89° C | 45% | 1007.7 hPa | 0 mm | - | 0 W/m² | - |
| 1778027295 | 23.89° C | 44% | 1007.9 hPa | 0 mm | - | 0 W/m² | - |
| 1778026991 | 24.44° C | 44% | 1007.8 hPa | 0 mm | - | 0 W/m² | - |
| 1778026687 | 24.44° C | 43% | 1007.7 hPa | 0 mm | - | 0 W/m² | - |
| 1778026384 | 24.44° C | 42% | 1007.8 hPa | 0 mm | - | 0 W/m² | - |
| 1778026081 | 25° C | 42% | 1007.7 hPa | 0 mm | - | 0 W/m² | - |
| 1778025779 | 25° C | 41% | 1007.5 hPa | 0 mm | - | 1 W/m² | - |
| 1778025475 | 25° C | 41% | 1007.5 hPa | 0 mm | - | 2 W/m² | - |
| 1778025173 | 25° C | 41% | 1007.5 hPa | 0 mm | - | 2 W/m² | - |
| 1778024870 | 25° C | 41% | 1007.4 hPa | 0 mm | - | 4 W/m² | - |
| 1778024568 | 25° C | 41% | 1007.3 hPa | 0 mm | - | 6 W/m² | - |
| 1778024264 | 25.56° C | 40% | 1007.3 hPa | 0 mm | - | 9 W/m² | - |
| 1778023962 | 25.56° C | 40% | 1007.2 hPa | 0 mm | - | 12 W/m² | - |
* Rain latest hour (hover to see other rain measurements)
** Current wind speed in m/s (hover to see current wind gust speed)